Hourly Data Report for September 12, 2006

TORONTO CITY
ONTARIO

43°40'00.000" N
79°24'00.000" W
112.50 m
6158355
71508
XTO

Download Data

Hourly Data (September 2006)
Hourly Data Report for September 12, 2006
TIME
LST
Temp Definition
°C
Dew Point Definition
°C
Rel Hum Definition
%
Precip. Amount Definition
mm

Wind Dir Definition
10's deg

Wind Spd Definition
km/h
Visibility Definition
km
Stn Press Definition
kPa
Hmdx Definition


Wind Chill Definition


Weather Definition


00:00 17.2 10.2 63   LegendMM LegendMM   100.99     LegendNANA
01:00 17.0 11.6 70   LegendMM LegendMM   100.94     LegendNANA
02:00 16.8 12.4 75   LegendMM LegendMM   100.90     LegendNANA
03:00 16.6 13.1 80   LegendMM LegendMM   100.86     LegendNANA
04:00 16.3 13.6 84   LegendMM LegendMM   100.82     LegendNANA
05:00 16.3 14.3 88   LegendMM LegendMM   100.81     LegendNANA
06:00 16.2 14.2 88   LegendMM LegendMM   100.78     LegendNANA
07:00 16.4 13.2 81   LegendMM LegendMM   100.80     LegendNANA
08:00 16.6 13.0 79   LegendMM LegendMM   100.77     LegendNANA
09:00 16.7 13.2 80   LegendMM LegendMM   100.71     LegendNANA
10:00 16.8 13.7 82   LegendMM LegendMM   100.67     LegendNANA
11:00 16.8 13.7 82   LegendMM LegendMM   100.65     LegendNANA
12:00 16.7 13.9 84   LegendMM LegendMM   100.71     LegendNANA
13:00 17.3 13.9 80   LegendMM LegendMM   100.65     LegendNANA
14:00 17.3 14.4 83   LegendMM LegendMM   100.57     LegendNANA
15:00 17.3 14.7 85   LegendMM LegendMM   100.52     LegendNANA
16:00 17.2 15.1 87   LegendMM LegendMM   100.45     LegendNANA
17:00 16.3 15.7 96   LegendMM LegendMM   100.42     LegendNANA
18:00 16.2 15.8 97   LegendMM LegendMM   100.35     LegendNANA
19:00 16.3 15.8 97   LegendMM LegendMM   100.30     LegendNANA
20:00 16.4 15.3 93   LegendMM LegendMM   100.28     LegendNANA
21:00 15.9 15.2 96   LegendMM LegendMM   100.28     LegendNANA
22:00 15.6 15.2 97   LegendMM LegendMM   100.20     LegendNANA
23:00 15.6 15.4 99   LegendMM LegendMM   100.11     LegendNANA

Notes on Data Quality.

Legend

  • E = Estimated
  • M = Missing
  • NA = Not Available*
  • [empty] = Indicates an unobserved value
Date modified: